Home   Weather   Tashkent   Past weeks

Flag for Uzbekistan Past Weather in Tashkent, Uzbekistan — Yesterday and Last 2 Weeks

Now
41 °F

Sprinkles. Overcast.


Feels Like: 41 °F
Forecast: 36 / 40 °F
Wind: 2 mph from North

Location: Tashkent

Current Time: Jan 22, 2017 at 2:56:59 am

Latest Report: Jan 22, 2017 at 2:30 am


Visibility: N/A

Pressure: 30.21 "Hg

Humidity: 87%

Dew Point: 37 °F

Location of TashkentLocation

Past Weather in Tashkent — Graph

°F

Tashkent Temperature Yesterday

Maximum temperature yesterday: 43 °F (at 10:30 am)
Minimum temperature yesterday: 37 °F (at 1:30 am)
Average temperature yesterday: 40 °F

High & Low Weather Summary for the Past Weeks

 TemperatureHumidityPressure
High55 °F (Jan 20, 2:00 pm)100% (Jan 7, 1:00 am)30.39 "Hg (Jan 7, 1:00 am)
Low19 °F (Jan 9, 7:30 am)26% (Jan 11, 3:00 pm)30.12 "Hg (Jan 10, 7:30 pm)
Average34 °F77%30.25 "Hg
* Reported Jan 7 1:00 am — Jan 22 1:30 am, Tashkent, Weather by CustomWeather, © 2017

Note: Actual official high and low records may vary slightly from our data, if they occured in-between our weather recording intervals... More about our weather records

Advertising

Tashkent Weather History for the Previous 24 Hours

Scroll right to see more
 ConditionsComfort  
Time TempWeatherWind HumidityBarometerVisibility
1:30 am
Sun, Jan 22
39 °FOvercast.5 mph93%30.21 "HgN/A
1:00 am41 °FOvercast.7 mph87%30.21 "HgN/A
12:30 am41 °FSprinkles. Fog.7 mph87%30.21 "Hg2 mi
12:00 am41 °FSprinkles. Fog.5 mph93%30.21 "Hg2 mi
11:30 pm
Sat, Jan 21
41 °FSprinkles. Fog.7 mph93%30.21 "Hg2 mi
11:00 pm41 °FSprinkles. Fog.7 mph93%30.21 "Hg2 mi
10:30 pm41 °FSprinkles. Fog.7 mph93%30.21 "Hg2 mi
10:00 pm41 °FSprinkles. Fog.7 mph100%30.21 "Hg1 mi
9:30 pm41 °FSprinkles. Fog.5 mph100%30.21 "Hg1 mi
9:00 pm41 °FSprinkles. Fog.5 mph100%30.21 "Hg1 mi
8:30 pm41 °FSprinkles. Fog.2 mph100%30.21 "Hg1 mi
8:00 pm41 °FRain showers. Fog.No wind93%30.21 "Hg1 mi
7:30 pm41 °FSprinkles. Fog.No wind93%30.21 "Hg1 mi
7:00 pm41 °FSprinkles. Fog.No wind93%30.21 "Hg1 mi
6:30 pm41 °FSprinkles. Fog.2 mph100%30.21 "Hg1 mi
6:00 pm41 °FSprinkles. Fog.5 mph93%30.21 "Hg1 mi
5:30 pm41 °FSprinkles. Fog.No wind93%30.21 "Hg1 mi
5:00 pm41 °FSprinkles. Fog.No wind93%30.21 "Hg1 mi
4:30 pm41 °FSprinkles. Fog.2 mph93%30.21 "Hg1 mi
4:00 pm41 °FSprinkles. Fog.2 mph93%30.21 "Hg1 mi
3:30 pm39 °FSprinkles. Fog.2 mph93%30.21 "Hg1 mi
3:00 pm39 °FSprinkles. Fog.2 mph93%30.21 "Hg1 mi
2:30 pm39 °FSprinkles. Fog.7 mph93%30.21 "Hg1 mi
2:00 pm41 °FSprinkles. Fog.7 mph93%30.21 "Hg1 mi
1:30 pm41 °FSprinkles. Fog.7 mph93%30.24 "Hg1 mi
1:00 pm43 °FSprinkles. Fog.No wind87%30.24 "Hg2 mi
12:30 pm43 °FSprinkles. Fog.2 mph87%30.24 "Hg2 mi
12:00 pm43 °FFog.No wind81%30.24 "Hg2 mi
11:30 am41 °FSprinkles. Fog.5 mph93%30.27 "Hg2 mi
11:00 am41 °FSprinkles. Fog.5 mph93%30.27 "Hg2 mi
10:30 am43 °FSprinkles. Fog.5 mph81%30.27 "Hg3 mi
10:00 am41 °FSprinkles. Fog.5 mph93%30.27 "Hg3 mi
9:30 am41 °FSprinkles. Overcast.2 mph87%30.24 "Hg4 mi
9:00 am41 °FOvercast.2 mph87%30.24 "Hg4 mi
8:30 am41 °FSprinkles. Fog.9 mph81%30.24 "Hg3 mi
8:00 am41 °FFog.5 mph76%30.24 "Hg3 mi
7:30 am41 °FSprinkles. Fog.2 mph76%30.24 "Hg2 mi
7:00 am41 °FSprinkles. Overcast.No wind66%30.24 "Hg2 mi
6:30 am41 °FSprinkles. Overcast.7 mph66%30.24 "Hg2 mi
6:00 am39 °FPassing clouds.5 mph65%30.24 "Hg2 mi
5:30 am39 °FPassing clouds.5 mph61%30.24 "Hg2 mi
5:00 am37 °FPassing clouds.7 mph70%30.24 "Hg2 mi
4:30 am37 °FPassing clouds.7 mph65%30.24 "Hg2 mi
4:00 am37 °FPassing clouds.9 mph65%30.24 "Hg2 mi
3:30 am37 °FPassing clouds.9 mph65%30.24 "Hg2 mi
3:00 am39 °FPassing clouds.5 mph56%30.24 "Hg2 mi
2:30 am39 °FPassing clouds.7 mph56%30.21 "Hg2 mi
2:00 am37 °FPassing clouds.9 mph60%30.21 "Hg2 mi
Weather by CustomWeather, © 2017

See weather overviewHow to use our weather pages